FW1267 Weather Reports


time (UTC)temp
F
wind
direction
speed
knots
gust
knots
rain 1hr
in
rain 24hr
in
rain mn
in
humidity
%
barometer
mb
20260506221543 66 217 0.0 4.3 0.00 0.17 0.17 81 1007.3
20260506220042 66 239 0.9 3.5 0.00 0.17 0.17 82 1007.0
20260506214542 65 236 1.7 3.5 0.00 0.17 0.17 82 1006.7
20260506213044 65 238 0.0 3.5 0.00 0.17 0.17 82 1006.9
20260506211542 66 217 0.0 4.3 0.00 0.17 0.17 82 1006.6
20260506210040 66 246 1.7 5.2 0.00 0.17 0.17 82 1006.6
20260506204545 65 237 2.6 10.4 0.00 0.17 0.17 82 1006.3
20260506203040 65 225 0.9 5.2 0.00 0.17 0.17 83 1006.5
20260506201538 64 221 0.9 7.0 0.00 0.17 0.17 83 1006.6
20260506200037 64 219 0.0 5.2 0.00 0.17 0.17 83 1006.6
20260506194538 64 217 0.9 7.8 0.00 0.17 0.17 84 1006.6
20260506193034 64 261 2.6 13.0 0.00 0.17 0.17 83 1006.7
20260506191535 64 232 0.9 9.6 0.00 0.17 0.17 83 1006.7
20260506190035 64 240 3.5 10.4 0.00 0.17 0.17 83 1006.7
20260506184534 64 229 2.6 13.0 0.00 0.17 0.17 84 1006.8
20260506183032 63 224 3.5 13.0 0.01 0.17 0.17 85 1006.9
20260506181531 62 213 1.7 7.0 0.01 0.17 0.17 88 1007.1
20260506180038 61 242 2.6 9.6 0.01 0.17 0.17 89 1007.2
20260506174530 61 252 1.7 7.8 0.01 0.17 0.17 89 1007.2
20260506173029 60 173 1.7 11.3 0.00 0.16 0.16 89 1007.3
20260506171528 60 212 3.5 9.6 0.00 0.16 0.16 89 1007.3
20260506170027 60 236 3.5 11.3 0.00 0.16 0.16 90 1007.2
20260506164526 60 192 1.7 13.0 0.00 0.16 0.16 91 1007.2
20260506163046 60 219 0.9 6.1 0.00 0.16 0.16 91 1007.3
20260506161524 60 177 1.7 8.7 0.02 0.16 0.16 92 1007.4
20260506160024 60 221 2.6 7.0 0.04 0.16 0.16 91 1007.5
20260506154521 60 219 0.9 7.0 0.06 0.16 0.16 91 1007.2
20260506153019 60 186 0.9 4.3 0.07 0.16 0.16 91 1006.8
20260506151519 60 171 0.9 7.8 0.06 0.14 0.14 91 1007.7
20260506150020 60 192 0.9 6.1 0.06 0.12 0.12 90 1008.0
20260506144517 59 183 0.9 7.8 0.06 0.10 0.10 90 1008.3
20260506143017 60 219 1.7 7.8 0.08 0.09 0.09 89 1008.1
20260506141515 60 235 0.9 14.8 0.07 0.08 0.08 89 1007.9
20260506140014 60 165 1.7 8.7 0.05 0.06 0.06 88 1007.8
20260506134512 60 170 0.9 2.6 0.03 0.03 0.03 87 1007.7
20260506133010 61 232 0.0 7.0 0.01 0.01 0.01 85 1007.8
20260506131513 61 221 0.9 4.3 0.01 0.01 0.01 84 1007.9
20260506130007 61 243 0.9 4.3 0.01 0.01 0.01 84 1007.9
20260506124505 62 211 1.7 7.0 0.00 0.00 0.00 82 1008.2
20260506123004 62 234 0.9 5.2 0.00 0.00 0.00 82 1008.2
20260506121503 62 181 1.7 7.8 0.00 0.00 0.00 81 1008.3
20260506120001 62 240 1.7 8.7 0.00 0.00 0.00 81 1008.1
20260506114607 63 225 3.5 13.9 0.00 0.00 0.00 79 1007.9
20260506113056 64 218 1.7 9.6 0.00 0.00 0.00 77 1007.8
20260506111554 64 228 3.5 13.0 0.00 0.00 0.00 76 1007.7
20260506110059 65 239 1.7 8.7 0.00 0.00 0.00 74 1007.5
20260506104550 65 215 3.5 13.0 0.00 0.00 0.00 72 1007.2
20260506103048 65 168 5.2 13.0 0.00 0.00 0.00 72 1007.3
20260506101554 65 250 3.5 14.8 0.00 0.00 0.00 72 1007.2
20260506100047 65 170 1.7 7.8 0.00 0.00 0.00 71 1007.1
20260506094604 66 184 3.5 11.3 0.00 0.00 0.00 71 1007.1
20260506093044 66 192 1.7 13.9 0.00 0.00 0.00 70 1007.1
20260506091540 66 223 1.7 10.4 0.00 0.00 0.00 69 1007.2
20260506090037 67 238 2.6 9.6 0.00 0.00 0.00 68 1007.5
20260506084536 67 216 2.6 12.2 0.00 0.00 0.00 67 1007.3
20260506083034 67 182 3.5 11.3 0.00 0.00 0.00 66 1007.3
20260506081531 68 160 2.6 11.3 0.00 0.00 0.00 64 1007.3
20260506073026 69 190 2.6 11.3 0.00 0.00 0.00 62 1007.5
20260506071530 69 212 0.9 7.8 0.00 0.00 0.00 61 1007.7
20260506061528 70 228 4.3 13.9 0.00 0.00 0.00 59 1008.3
20260506044510 69 181 0.9 8.7 0.00 0.00 0.00 56 1008.7
20260506043008 70 237 3.5 13.0 0.00 0.00 0.00 53 1008.6
20260506041505 70 194 5.2 15.6 0.00 0.00 0.00 52 1008.8
20260506040005 70 198 3.5 13.0 0.00 0.00 0.00 52 1008.6
20260506034503 69 211 0.9 9.6 0.00 0.00 0.00 52 1008.7
20260506033001 69 204 1.7 8.7 0.00 0.00 0.00 51 1008.8
20260506031510 69 206 0.0 2.6 0.00 0.00 0.00 50 1008.7
20260506024559 70 221 0.9 3.5 0.00 0.00 0.00 50 1008.8
20260506023059 72 209 0.0 9.6 0.00 0.00 0.00 44 1008.8
20260506021600 72 207 2.6 8.7 0.00 0.00 0.00 43 1008.7
20260506014557 73 209 2.6 13.0 0.00 0.00 0.00 41 1008.6
20260506013056 74 191 1.7 13.0 0.00 0.00 0.00 40 1008.5
20260506011606 74 196 5.2 13.9 0.00 0.00 0.00 40 1008.3
20260506010058 75 219 2.6 14.8 0.00 0.00 0.00 40 1008.1
20260506004554 75 248 2.6 13.9 0.00 0.00 0.00 40 1008.0
20260506003055 75 175 0.9 12.2 0.00 0.00 0.00 40 1007.8
20260506001554 76 216 3.5 9.6 0.00 0.00 0.00 39 1007.7
20260506000055 76 220 3.5 12.2 0.00 0.00 0.00 39 1007.8
20260505234600 76 217 1.7 10.4 0.00 0.00 0.00 40 1007.6
20260505233108 77 203 4.3 11.3 0.00 0.00 0.00 38 1007.6
20260505231555 77 253 2.6 16.5 0.00 0.00 0.00 38 1007.5
20260505230051 78 233 2.6 13.0 0.00 0.00 0.00 37 1007.4
20260505224552 79 183 0.9 13.0 0.00 0.00 0.00 37 1007.3
20260505223053 79 235 4.3 9.6 0.00 0.00 0.00 35 1007.5